owner,sensor,date,latitude,longitude,vertical_datum,direction_of_sea_water_velocity,sea_water_speed,upward_sea_water_velocity,qcFlag 
TABS,ioos:station:wmo:42043:1,1996-04-01T00:00:00Z,28.9818,-94.9186,2.0,227.033797,8.964691852,-99999.0,'11133222,11111222,99999999' 
TABS,ioos:station:wmo:42043:1,1996-04-01T00:30:00Z,28.9818,-94.9186,2.0,218.2997084,7.212246529,-99999.0,'11133222,11111222,99999999' 
TABS,ioos:station:wmo:42043:1,1996-04-01T01:00:00Z,28.9818,-94.9186,2.0,199.2352506,10.41123432,-99999.0,'11111222,11111222,99999999' 
TABS,ioos:station:wmo:42043:1,1996-04-01T01:30:00Z,28.9818,-94.9186,2.0,209.3084772,7.006925146,-99999.0,'11133222,11111222,99999999' 
TABS,ioos:station:wmo:42043:1,1996-04-01T02:00:00Z,28.9818,-94.9186,2.0,200.3871997,5.56884189,-99999.0,'11133222,11111222,99999999' 
TABS,ioos:station:wmo:42043:1,1996-04-01T02:30:00Z,28.9818,-94.9186,2.0,187.4740233,3.45939301,-99999.0,'11133222,11111222,99999999' 
TABS,ioos:station:wmo:42043:1,1996-04-01T03:00:00Z,28.9818,-94.9186,2.0,181.8593845,4.622434424,-99999.0,'11133222,11111222,99999999' 
TABS,ioos:station:wmo:42043:1,1996-04-01T03:30:00Z,28.9818,-94.9186,2.0,179.9997895,4.92,-99999.0,'11133222,11111222,99999999' 
TABS,ioos:station:wmo:42043:1,1996-04-01T04:00:00Z,28.9818,-94.9186,2.0,161.4108636,2.35274308,-99999.0,'11133222,11111222,99999999' 
TABS,ioos:station:wmo:42043:1,1996-04-01T04:30:00Z,28.9818,-94.9186,2.0,96.76237386,2.547724475,-99999.0,'11133222,11111222,99999999' 
TABS,ioos:station:wmo:42043:1,1996-04-01T05:00:00Z,28.9818,-94.9186,2.0,137.2290696,5.271935129,-99999.0,'11133222,11111222,99999999' 
TABS,ioos:station:wmo:42043:1,1996-04-01T05:30:00Z,28.9818,-94.9186,2.0,101.4086915,2.274950549,-99999.0,'11133222,11111222,99999999' 
TABS,ioos:station:wmo:42043:1,1996-04-01T06:00:00Z,28.9818,-94.9186,2.0,77.38070722,2.746343023,-99999.0,'11133222,11111222,99999999' 
TABS,ioos:station:wmo:42043:1,1996-04-01T06:30:00Z,28.9818,-94.9186,2.0,81.81866833,3.16218279,-99999.0,'11133222,11111222,99999999' 
TABS,ioos:station:wmo:42043:1,1996-04-01T07:00:00Z,28.9818,-94.9186,2.0,81.83154048,2.111421322,-99999.0,'11133222,11111222,99999999' 
TABS,ioos:station:wmo:42043:1,1996-04-01T07:30:00Z,28.9818,-94.9186,2.0,137.3027683,2.639640127,-99999.0,'11133222,11111222,99999999' 
TABS,ioos:station:wmo:42043:1,1996-04-01T08:00:00Z,28.9818,-94.9186,2.0,153.4348005,4.00256168,-99999.0,'11133222,11111222,99999999' 
TABS,ioos:station:wmo:42043:1,1996-04-01T08:30:00Z,28.9818,-94.9186,2.0,178.5208845,5.811935994,-99999.0,'11133222,11111222,99999999' 
TABS,ioos:station:wmo:42043:1,1996-04-01T09:00:00Z,28.9818,-94.9186,2.0,190.3107681,8.324433915,-99999.0,'11133222,11111222,99999999' 
TABS,ioos:station:wmo:42043:1,1996-04-01T09:30:00Z,28.9818,-94.9186,2.0,193.5773947,13.3326104,-99999.0,'11111222,11111222,99999999' 
TABS,ioos:station:wmo:42043:1,1996-04-01T10:00:00Z,28.9818,-94.9186,2.0,195.3406444,14.06100992,-99999.0,'11111222,11111222,99999999' 
TABS,ioos:station:wmo:42043:1,1996-04-01T10:30:00Z,28.9818,-94.9186,2.0,203.7526633,12.21469607,-99999.0,'11111222,11111222,99999999' 
TABS,ioos:station:wmo:42043:1,1996-04-01T11:00:00Z,28.9818,-94.9186,2.0,221.7636291,16.78519586,-99999.0,'11111222,11111222,99999999' 
TABS,ioos:station:wmo:42043:1,1996-04-01T11:30:00Z,28.9818,-94.9186,2.0,218.0347755,14.75305053,-99999.0,'11111222,11111222,99999999' 
TABS,ioos:station:wmo:42043:1,1996-04-01T12:00:00Z,28.9818,-94.9186,2.0,226.2670803,19.18142852,-99999.0,'11111222,11111222,99999999' 
TABS,ioos:station:wmo:42043:1,1996-04-01T12:30:00Z,28.9818,-94.9186,2.0,237.2376244,15.41159304,-99999.0,'11111222,11111222,99999999' 
TABS,ioos:station:wmo:42043:1,1996-04-01T13:00:00Z,28.9818,-94.9186,2.0,229.4074256,20.6094784,-99999.0,'11111222,11111222,99999999' 
TABS,ioos:station:wmo:42043:1,1996-04-01T13:30:00Z,28.9818,-94.9186,2.0,234.2407108,18.36145147,-99999.0,'11111222,11111222,99999999' 
TABS,ioos:station:wmo:42043:1,1996-04-01T14:00:00Z,28.9818,-94.9186,2.0,242.2240684,15.66491621,-99999.0,'11111222,11111222,99999999' 
TABS,ioos:station:wmo:42043:1,1996-04-01T14:30:00Z,28.9818,-94.9186,2.0,240.8894125,15.00540236,-99999.0,'11111222,11111222,99999999' 
TABS,ioos:station:wmo:42043:1,1996-04-01T15:00:00Z,28.9818,-94.9186,2.0,247.7625206,14.16339296,-99999.0,'11111222,11111222,99999999' 
TABS,ioos:station:wmo:42043:1,1996-04-01T15:30:00Z,28.9818,-94.9186,2.0,248.0689946,13.1732608,-99999.0,'11111222,11111222,99999999' 
TABS,ioos:station:wmo:42043:1,1996-04-01T16:00:00Z,28.9818,-94.9186,2.0,248.0957484,15.57429292,-99999.0,'11111222,11111222,99999999' 
TABS,ioos:station:wmo:42043:1,1996-04-01T16:30:00Z,28.9818,-94.9186,2.0,252.6879735,14.51764444,-99999.0,'11111222,11111222,99999999' 
TABS,ioos:station:wmo:42043:1,1996-04-01T17:00:00Z,28.9818,-94.9186,2.0,251.0937008,16.54243332,-99999.0,'11111222,11111222,99999999' 
TABS,ioos:station:wmo:42043:1,1996-04-01T17:30:00Z,28.9818,-94.9186,2.0,253.6576028,14.28721456,-99999.0,'11111222,11111222,99999999' 
TABS,ioos:station:wmo:42043:1,1996-04-01T18:00:00Z,28.9818,-94.9186,2.0,246.9298175,16.35819672,-99999.0,'11111222,11111222,99999999' 
TABS,ioos:station:wmo:42043:1,1996-04-01T18:30:00Z,28.9818,-94.9186,2.0,243.4200775,17.65599332,-99999.0,'11111222,11111222,99999999' 
TABS,ioos:station:wmo:42043:1,1996-04-01T19:00:00Z,28.9818,-94.9186,2.0,243.4223813,20.98773451,-99999.0,'11111222,11111222,99999999' 
TABS,ioos:station:wmo:42043:1,1996-04-01T19:30:00Z,28.9818,-94.9186,2.0,243.8634951,35.84517401,-99999.0,'11111222,11111222,99999999' 
TABS,ioos:station:wmo:42043:1,1996-04-01T20:00:00Z,28.9818,-94.9186,2.0,245.7947372,38.87795262,-99999.0,'11111222,11111222,99999999' 
TABS,ioos:station:wmo:42043:1,1996-04-01T20:30:00Z,28.9818,-94.9186,2.0,243.6162219,40.91130528,-99999.0,'11111222,11111222,99999999' 
TABS,ioos:station:wmo:42043:1,1996-04-01T21:00:00Z,28.9818,-94.9186,2.0,241.6365539,42.33172097,-99999.0,'11111222,11111222,99999999' 
TABS,ioos:station:wmo:42043:1,1996-04-01T21:30:00Z,28.9818,-94.9186,2.0,244.4483476,41.45424466,-99999.0,'11111222,11111222,99999999' 
TABS,ioos:station:wmo:42043:1,1996-04-01T22:00:00Z,28.9818,-94.9186,2.0,249.0751263,40.04060439,-99999.0,'11111222,11111222,99999999' 
TABS,ioos:station:wmo:42043:1,1996-04-01T22:30:00Z,28.9818,-94.9186,2.0,246.8459156,43.59112295,-99999.0,'11111222,11111222,99999999' 
TABS,ioos:station:wmo:42043:1,1996-04-01T23:00:00Z,28.9818,-94.9186,2.0,249.3978591,41.06624039,-99999.0,'11111222,11111222,99999999' 
TABS,ioos:station:wmo:42043:1,1996-04-01T23:30:00Z,28.9818,-94.9186,2.0,250.0463279,41.05445408,-99999.0,'11111222,11111222,99999999' 
TABS,ioos:station:wmo:42043:1,1996-04-02T00:00:00Z,28.9818,-94.9186,2.0,251.1385153,38.26461812,-99999.0,'11111222,11111222,99999999' 
TABS,ioos:station:wmo:42043:1,1996-04-02T00:30:00Z,28.9818,-94.9186,2.0,256.6679344,34.91079203,-99999.0,'11111222,11111222,99999999' 
TABS,ioos:station:wmo:42043:1,1996-04-02T01:00:00Z,28.9818,-94.9186,2.0,261.5399913,33.44387537,-99999.0,'11111222,11111222,99999999' 
TABS,ioos:station:wmo:42043:1,1996-04-02T01:30:00Z,28.9818,-94.9186,2.0,265.6766385,29.58416637,-99999.0,'11111222,11111222,99999999' 
TABS,ioos:station:wmo:42043:1,1996-04-02T02:00:00Z,28.9818,-94.9186,2.0,268.0989669,26.8347629,-99999.0,'11111222,11111222,99999999' 
TABS,ioos:station:wmo:42043:1,1996-04-02T02:30:00Z,28.9818,-94.9186,2.0,274.458986,24.95552043,-99999.0,'11111222,11111222,99999999' 
TABS,ioos:station:wmo:42043:1,1996-04-02T03:00:00Z,28.9818,-94.9186,2.0,276.748399,22.80800079,-99999.0,'11111222,11111222,99999999' 
TABS,ioos:station:wmo:42043:1,1996-04-02T03:30:00Z,28.9818,-94.9186,2.0,276.5560967,20.84630663,-99999.0,'11111222,11111222,99999999' 
TABS,ioos:station:wmo:42043:1,1996-04-02T04:00:00Z,28.9818,-94.9186,2.0,281.5646496,18.55669152,-99999.0,'11111222,11111222,99999999' 
TABS,ioos:station:wmo:42043:1,1996-04-02T04:30:00Z,28.9818,-94.9186,2.0,283.6231106,15.79433126,-99999.0,'11111222,11111222,99999999' 
TABS,ioos:station:wmo:42043:1,1996-04-02T05:00:00Z,28.9818,-94.9186,2.0,287.137589,14.66091743,-99999.0,'11111222,11111222,99999999' 
TABS,ioos:station:wmo:42043:1,1996-04-02T05:30:00Z,28.9818,-94.9186,2.0,286.7378628,12.91724816,-99999.0,'11111222,11111222,99999999' 
TABS,ioos:station:wmo:42043:1,1996-04-02T06:00:00Z,28.9818,-94.9186,2.0,275.1286,13.31329035,-99999.0,'11111222,11111222,99999999' 
TABS,ioos:station:wmo:42043:1,1996-04-02T06:30:00Z,28.9818,-94.9186,2.0,264.8714,13.31329035,-99999.0,'11111222,11111222,99999999' 
TABS,ioos:station:wmo:42043:1,1996-04-02T07:00:00Z,28.9818,-94.9186,2.0,255.9530857,13.51408524,-99999.0,'11111222,11111222,99999999' 
TABS,ioos:station:wmo:42043:1,1996-04-02T07:30:00Z,28.9818,-94.9186,2.0,244.200262,15.39446654,-99999.0,'11111222,11111222,99999999' 
TABS,ioos:station:wmo:42043:1,1996-04-02T08:00:00Z,28.9818,-94.9186,2.0,240.202538,17.68860085,-99999.0,'11111222,11111222,99999999' 
TABS,ioos:station:wmo:42043:1,1996-04-02T08:30:00Z,28.9818,-94.9186,2.0,238.9417276,18.78255041,-99999.0,'11111222,11111222,99999999' 
TABS,ioos:station:wmo:42043:1,1996-04-02T09:00:00Z,28.9818,-94.9186,2.0,237.6952912,23.97005841,-99999.0,'11111222,11111222,99999999' 
TABS,ioos:station:wmo:42043:1,1996-04-02T09:30:00Z,28.9818,-94.9186,2.0,232.0101976,25.89694384,-99999.0,'11111222,11111222,99999999' 
TABS,ioos:station:wmo:42043:1,1996-04-02T10:00:00Z,28.9818,-94.9186,2.0,226.4750261,28.56244037,-99999.0,'11111222,11111222,99999999' 
TABS,ioos:station:wmo:42043:1,1996-04-02T10:30:00Z,28.9818,-94.9186,2.0,227.0719399,35.00346411,-99999.0,'11111222,11111222,99999999' 
TABS,ioos:station:wmo:42043:1,1996-04-02T11:00:00Z,28.9818,-94.9186,2.0,228.3154318,34.72049827,-99999.0,'11111222,11111222,99999999' 
TABS,ioos:station:wmo:42043:1,1996-04-02T11:30:00Z,28.9818,-94.9186,2.0,229.3481217,33.38669495,-99999.0,'11111222,11111222,99999999' 
TABS,ioos:station:wmo:42043:1,1996-04-02T12:00:00Z,28.9818,-94.9186,2.0,229.9276544,31.93786468,-99999.0,'11111222,11111222,99999999' 
TABS,ioos:station:wmo:42043:1,1996-04-02T12:30:00Z,28.9818,-94.9186,2.0,228.2283246,31.76415747,-99999.0,'11111222,11111222,99999999' 
TABS,ioos:station:wmo:42043:1,1996-04-02T13:00:00Z,28.9818,-94.9186,2.0,231.6630924,29.06752311,-99999.0,'11111222,11111222,99999999' 
TABS,ioos:station:wmo:42043:1,1996-04-02T13:30:00Z,28.9818,-94.9186,2.0,240.1922622,32.97217312,-99999.0,'11111222,11111222,99999999' 
TABS,ioos:station:wmo:42043:1,1996-04-02T14:00:00Z,28.9818,-94.9186,2.0,239.1678308,30.53540404,-99999.0,'11111222,11111222,99999999' 
TABS,ioos:station:wmo:42043:1,1996-04-02T14:30:00Z,28.9818,-94.9186,2.0,242.0223669,43.18711845,-99999.0,'11111222,11111222,99999999' 
TABS,ioos:station:wmo:42043:1,1996-04-02T15:00:00Z,28.9818,-94.9186,2.0,239.9200093,40.12344078,-99999.0,'11111222,11111222,99999999' 
TABS,ioos:station:wmo:42043:1,1996-04-02T15:30:00Z,28.9818,-94.9186,2.0,243.2232979,36.38107338,-99999.0,'11111222,11111222,99999999' 
TABS,ioos:station:wmo:42043:1,1996-04-02T16:00:00Z,28.9818,-94.9186,2.0,245.8707605,34.61431207,-99999.0,'11111222,11111222,99999999' 
TABS,ioos:station:wmo:42043:1,1996-04-02T16:30:00Z,28.9818,-94.9186,2.0,249.705194,30.50358176,-99999.0,'11111222,11111222,99999999' 
TABS,ioos:station:wmo:42043:1,1996-04-02T17:00:00Z,28.9818,-94.9186,2.0,249.5483864,26.87386277,-99999.0,'11111222,11111222,99999999' 
TABS,ioos:station:wmo:42043:1,1996-04-02T17:30:00Z,28.9818,-94.9186,2.0,249.8447305,25.07550996,-99999.0,'11111222,11111222,99999999' 
TABS,ioos:station:wmo:42043:1,1996-04-02T18:00:00Z,28.9818,-94.9186,2.0,252.0927015,30.53941224,-99999.0,'11111222,11111222,99999999' 
TABS,ioos:station:wmo:42043:1,1996-04-02T18:30:00Z,28.9818,-94.9186,2.0,250.2769981,29.128771,-99999.0,'11111222,11111222,99999999' 
TABS,ioos:station:wmo:42043:1,1996-04-02T19:00:00Z,28.9818,-94.9186,2.0,241.1386612,25.0058973,-99999.0,'11111222,11111222,99999999' 
TABS,ioos:station:wmo:42043:1,1996-04-02T19:30:00Z,28.9818,-94.9186,2.0,245.0384132,28.60156989,-99999.0,'11111222,11111222,99999999' 
TABS,ioos:station:wmo:42043:1,1996-04-02T20:00:00Z,28.9818,-94.9186,2.0,244.4338314,26.92635326,-99999.0,'11111222,11111222,99999999' 
TABS,ioos:station:wmo:42043:1,1996-04-02T20:30:00Z,28.9818,-94.9186,2.0,243.1758603,28.72034993,-99999.0,'11111222,11111222,99999999' 
TABS,ioos:station:wmo:42043:1,1996-04-02T21:00:00Z,28.9818,-94.9186,2.0,239.7013197,26.58064333,-99999.0,'11111222,11111222,99999999' 
TABS,ioos:station:wmo:42043:1,1996-04-02T21:30:00Z,28.9818,-94.9186,2.0,233.7184008,29.20154106,-99999.0,'11111222,11111222,99999999' 
TABS,ioos:station:wmo:42043:1,1996-04-02T22:00:00Z,28.9818,-94.9186,2.0,221.3059587,27.76920056,-99999.0,'11111222,11111222,99999999' 
TABS,ioos:station:wmo:42043:1,1996-04-02T22:30:00Z,28.9818,-94.9186,2.0,217.250882,31.25669208,-99999.0,'11111222,11111222,99999999' 
TABS,ioos:station:wmo:42043:1,1996-04-02T23:00:00Z,28.9818,-94.9186,2.0,219.8162301,26.76739061,-99999.0,'11111222,11111222,99999999' 
TABS,ioos:station:wmo:42043:1,1996-04-02T23:30:00Z,28.9818,-94.9186,2.0,227.0165892,29.9362339,-99999.0,'11111222,11111222,99999999' 
TABS,ioos:station:wmo:42043:1,1996-04-03T00:00:00Z,28.9818,-94.9186,2.0,231.2560196,30.95054927,-99999.0,'11111222,11111222,99999999' 
TABS,ioos:station:wmo:42043:1,1996-04-03T00:30:00Z,28.9818,-94.9186,2.0,223.7698206,39.20396026,-99999.0,'11111222,11111222,99999999' 
TABS,ioos:station:wmo:42043:1,1996-04-03T01:00:00Z,28.9818,-94.9186,2.0,224.6663154,36.45904277,-99999.0,'11111222,11111222,99999999' 
TABS,ioos:station:wmo:42043:1,1996-04-03T01:30:00Z,28.9818,-94.9186,2.0,226.823614,33.1022975,-99999.0,'11111222,11111222,99999999' 
TABS,ioos:station:wmo:42043:1,1996-04-03T02:00:00Z,28.9818,-94.9186,2.0,224.9996843,27.60544874,-99999.0,'11111222,11111222,99999999' 
TABS,ioos:station:wmo:42043:1,1996-04-03T02:30:00Z,28.9818,-94.9186,2.0,230.4905873,22.02135781,-99999.0,'11111222,11111222,99999999' 
TABS,ioos:station:wmo:42043:1,1996-04-03T03:00:00Z,28.9818,-94.9186,2.0,232.6876897,18.92256325,-99999.0,'11111222,11111222,99999999' 
TABS,ioos:station:wmo:42043:1,1996-04-03T03:30:00Z,28.9818,-94.9186,2.0,232.7977296,15.53026078,-99999.0,'11111222,11111222,99999999' 
TABS,ioos:station:wmo:42043:1,1996-04-03T04:00:00Z,28.9818,-94.9186,2.0,234.4036523,14.84366868,-99999.0,'11111222,11111222,99999999' 
TABS,ioos:station:wmo:42043:1,1996-04-03T04:30:00Z,28.9818,-94.9186,2.0,236.8801711,12.8114363,-99999.0,'11111222,11111222,99999999' 
TABS,ioos:station:wmo:42043:1,1996-04-03T05:00:00Z,28.9818,-94.9186,2.0,236.8570601,13.35224326,-99999.0,'11111222,11111222,99999999' 
TABS,ioos:station:wmo:42043:1,1996-04-03T05:30:00Z,28.9818,-94.9186,2.0,231.1871818,8.791052269,-99999.0,'11133222,11111222,99999999' 
TABS,ioos:station:wmo:42043:1,1996-04-03T06:00:00Z,28.9818,-94.9186,2.0,224.2504378,8.111208295,-99999.0,'11133222,11111222,99999999' 
TABS,ioos:station:wmo:42043:1,1996-04-03T06:30:00Z,28.9818,-94.9186,2.0,192.2410178,19.66716299,-99999.0,'11111222,11111222,99999999' 
TABS,ioos:station:wmo:42043:1,1996-04-03T07:00:00Z,28.9818,-94.9186,2.0,206.5880885,10.99251109,-99999.0,'11111222,11111222,99999999' 
TABS,ioos:station:wmo:42043:1,1996-04-03T07:30:00Z,28.9818,-94.9186,2.0,208.5775352,5.602570838,-99999.0,'11133222,11111222,99999999' 
TABS,ioos:station:wmo:42043:1,1996-04-03T08:00:00Z,28.9818,-94.9186,2.0,202.5064996,4.676162957,-99999.0,'11133222,11111222,99999999' 
TABS,ioos:station:wmo:42043:1,1996-04-03T08:30:00Z,28.9818,-94.9186,2.0,209.1831819,7.341968401,-99999.0,'11133222,11111222,99999999' 
TABS,ioos:station:wmo:42043:1,1996-04-03T09:00:00Z,28.9818,-94.9186,2.0,203.4691219,8.612485123,-99999.0,'11133222,11111222,99999999' 
TABS,ioos:station:wmo:42043:1,1996-04-03T09:30:00Z,28.9818,-94.9186,2.0,193.2213618,10.4058301,-99999.0,'11111222,11111222,99999999' 
TABS,ioos:station:wmo:42043:1,1996-04-03T10:00:00Z,28.9818,-94.9186,2.0,186.8681156,12.45941411,-99999.0,'11111222,11111222,99999999' 
TABS,ioos:station:wmo:42043:1,1996-04-03T10:30:00Z,28.9818,-94.9186,2.0,203.8098548,11.07238908,-99999.0,'11111222,11111222,99999999' 
TABS,ioos:station:wmo:42043:1,1996-04-03T11:00:00Z,28.9818,-94.9186,2.0,221.1318989,14.04685018,-99999.0,'11111222,11111222,99999999' 
TABS,ioos:station:wmo:42043:1,1996-04-03T11:30:00Z,28.9818,-94.9186,2.0,229.8021791,13.85135372,-99999.0,'11111222,11111222,99999999' 
TABS,ioos:station:wmo:42043:1,1996-04-03T12:00:00Z,28.9818,-94.9186,2.0,226.6712618,14.54430473,-99999.0,'11111222,11111222,99999999' 
TABS,ioos:station:wmo:42043:1,1996-04-03T12:30:00Z,28.9818,-94.9186,2.0,245.2437576,12.46558462,-99999.0,'11111222,11111222,99999999' 
TABS,ioos:station:wmo:42043:1,1996-04-03T13:00:00Z,28.9818,-94.9186,2.0,260.8898631,39.53870509,-99999.0,'11111222,11111222,99999999' 
TABS,ioos:station:wmo:42043:1,1996-04-03T13:30:00Z,28.9818,-94.9186,2.0,270.0004209,42.32,-99999.0,'11111222,11111222,99999999' 
TABS,ioos:station:wmo:42043:1,1996-04-03T14:00:00Z,28.9818,-94.9186,2.0,273.1369771,38.1972211,-99999.0,'11111222,11111222,99999999' 
TABS,ioos:station:wmo:42043:1,1996-04-03T14:30:00Z,28.9818,-94.9186,2.0,272.1023579,36.53458225,-99999.0,'11111222,11111222,99999999' 
TABS,ioos:station:wmo:42043:1,1996-04-03T15:00:00Z,28.9818,-94.9186,2.0,273.3735039,35.52153854,-99999.0,'11111222,11111222,99999999' 
TABS,ioos:station:wmo:42043:1,1996-04-03T15:30:00Z,28.9818,-94.9186,2.0,271.830183,37.26900321,-99999.0,'11111222,11111222,99999999' 
TABS,ioos:station:wmo:42043:1,1996-04-03T16:00:00Z,28.9818,-94.9186,2.0,272.2593665,33.99641893,-99999.0,'11111222,11111222,99999999' 
TABS,ioos:station:wmo:42043:1,1996-04-03T16:30:00Z,28.9818,-94.9186,2.0,275.2425496,32.61641918,-99999.0,'11111222,11111222,99999999' 
TABS,ioos:station:wmo:42043:1,1996-04-03T17:00:00Z,28.9818,-94.9186,2.0,281.8440605,34.10607571,-99999.0,'11111222,11111222,99999999' 
TABS,ioos:station:wmo:42043:1,1996-04-03T17:30:00Z,28.9818,-94.9186,2.0,285.865566,44.15184934,-99999.0,'11111222,11111222,99999999' 
TABS,ioos:station:wmo:42043:1,1996-04-03T18:00:00Z,28.9818,-94.9186,2.0,289.2228007,41.18623192,-99999.0,'11111222,11111222,99999999' 
TABS,ioos:station:wmo:42043:1,1996-04-03T18:30:00Z,28.9818,-94.9186,2.0,287.6690629,38.77931665,-99999.0,'11111222,11111222,99999999' 
TABS,ioos:station:wmo:42043:1,1996-04-03T19:00:00Z,28.9818,-94.9186,2.0,289.9217065,38.03602503,-99999.0,'11111222,11111222,99999999' 
TABS,ioos:station:wmo:42043:1,1996-04-03T19:30:00Z,28.9818,-94.9186,2.0,291.4178468,37.13433048,-99999.0,'11111222,11111222,99999999' 
TABS,ioos:station:wmo:42043:1,1996-04-03T20:00:00Z,28.9818,-94.9186,2.0,288.0904009,38.87142138,-99999.0,'11111222,11111222,99999999' 
TABS,ioos:station:wmo:42043:1,1996-04-03T20:30:00Z,28.9818,-94.9186,2.0,284.8643862,37.77401488,-99999.0,'11111222,11111222,99999999' 
TABS,ioos:station:wmo:42043:1,1996-04-03T21:00:00Z,28.9818,-94.9186,2.0,282.1496804,39.62755607,-99999.0,'11111222,11111222,99999999' 
TABS,ioos:station:wmo:42043:1,1996-04-03T21:30:00Z,28.9818,-94.9186,2.0,277.0198201,39.03255692,-99999.0,'11111222,11111222,99999999' 
TABS,ioos:station:wmo:42043:1,1996-04-03T22:00:00Z,28.9818,-94.9186,2.0,272.934539,37.8996847,-99999.0,'11111222,11111222,99999999' 
TABS,ioos:station:wmo:42043:1,1996-04-03T22:30:00Z,28.9818,-94.9186,2.0,268.5738912,35.77107351,-99999.0,'11111222,11111222,99999999' 
TABS,ioos:station:wmo:42043:1,1996-04-03T23:00:00Z,28.9818,-94.9186,2.0,267.8076709,35.03563472,-99999.0,'11111222,11111222,99999999' 
TABS,ioos:station:wmo:42043:1,1996-04-03T23:30:00Z,28.9818,-94.9186,2.0,262.452315,35.1747253,-99999.0,'11111222,11111222,99999999' 
TABS,ioos:station:wmo:42043:1,1996-04-04T00:00:00Z,28.9818,-94.9186,2.0,262.6319668,34.85779396,-99999.0,'11111222,11111222,99999999' 
TABS,ioos:station:wmo:42043:1,1996-04-04T00:30:00Z,28.9818,-94.9186,2.0,262.8168311,38.14938269,-99999.0,'11111222,11111222,99999999' 
TABS,ioos:station:wmo:42043:1,1996-04-04T01:00:00Z,28.9818,-94.9186,2.0,263.2642889,38.11303452,-99999.0,'11111222,11111222,99999999' 
TABS,ioos:station:wmo:42043:1,1996-04-04T01:30:00Z,28.9818,-94.9186,2.0,257.4955864,35.10260532,-99999.0,'11111222,11111222,99999999' 
TABS,ioos:station:wmo:42043:1,1996-04-04T02:00:00Z,28.9818,-94.9186,2.0,249.9943595,30.92604081,-99999.0,'11111222,11111222,99999999' 
TABS,ioos:station:wmo:42043:1,1996-04-04T02:30:00Z,28.9818,-94.9186,2.0,243.9708972,28.18910783,-99999.0,'11111222,11111222,99999999' 
TABS,ioos:station:wmo:42043:1,1996-04-04T03:00:00Z,28.9818,-94.9186,2.0,245.3319496,26.06895663,-99999.0,'11111222,11111222,99999999' 
TABS,ioos:station:wmo:42043:1,1996-04-04T03:30:00Z,28.9818,-94.9186,2.0,240.6706684,24.94776343,-99999.0,'11111222,11111222,99999999' 
TABS,ioos:station:wmo:42043:1,1996-04-04T04:00:00Z,28.9818,-94.9186,2.0,251.1204171,24.8783862,-99999.0,'11111222,11111222,99999999' 
TABS,ioos:station:wmo:42043:1,1996-04-04T04:30:00Z,28.9818,-94.9186,2.0,252.1594165,22.84868705,-99999.0,'11111222,11111222,99999999' 
TABS,ioos:station:wmo:42043:1,1996-04-04T05:00:00Z,28.9818,-94.9186,2.0,256.878382,20.35133411,-99999.0,'11111222,11111222,99999999' 
TABS,ioos:station:wmo:42043:1,1996-04-04T05:30:00Z,28.9818,-94.9186,2.0,259.7326931,17.56118732,-99999.0,'11111222,11111222,99999999' 
TABS,ioos:station:wmo:42043:1,1996-04-04T06:00:00Z,28.9818,-94.9186,2.0,260.8165359,15.85318265,-99999.0,'11111222,11111222,99999999' 
TABS,ioos:station:wmo:42043:1,1996-04-04T06:30:00Z,28.9818,-94.9186,2.0,263.2871321,12.74738012,-99999.0,'11111222,11111222,99999999' 
TABS,ioos:station:wmo:42043:1,1996-04-04T07:00:00Z,28.9818,-94.9186,2.0,250.9061317,11.83086218,-99999.0,'11111222,11111222,99999999' 
TABS,ioos:station:wmo:42043:1,1996-04-04T07:30:00Z,28.9818,-94.9186,2.0,252.775195,11.07676848,-99999.0,'11111222,11111222,99999999' 
TABS,ioos:station:wmo:42043:1,1996-04-04T08:00:00Z,28.9818,-94.9186,2.0,251.2990077,10.2300782,-99999.0,'11111222,11111222,99999999' 
TABS,ioos:station:wmo:42043:1,1996-04-04T08:30:00Z,28.9818,-94.9186,2.0,236.2921964,9.135912653,-99999.0,'11133222,11111222,99999999' 
TABS,ioos:station:wmo:42043:1,1996-04-04T09:00:00Z,28.9818,-94.9186,2.0,234.0575513,9.387230689,-99999.0,'11133222,11111222,99999999' 
TABS,ioos:station:wmo:42043:1,1996-04-04T09:30:00Z,28.9818,-94.9186,2.0,223.4515302,7.59002635,-99999.0,'11133222,11111222,99999999' 
TABS,ioos:station:wmo:42043:1,1996-04-04T10:00:00Z,28.9818,-94.9186,2.0,206.5647786,6.663482573,-99999.0,'11133222,11111222,99999999' 
TABS,ioos:station:wmo:42043:1,1996-04-04T10:30:00Z,28.9818,-94.9186,2.0,197.7165101,7.820927055,-99999.0,'11133222,11111222,99999999' 
TABS,ioos:station:wmo:42043:1,1996-04-04T11:00:00Z,28.9818,-94.9186,2.0,194.8526437,9.8697771,-99999.0,'11133222,11111222,99999999' 
TABS,ioos:station:wmo:42043:1,1996-04-04T11:30:00Z,28.9818,-94.9186,2.0,185.3143228,11.2282679,-99999.0,'11111222,11111222,99999999' 
TABS,ioos:station:wmo:42043:1,1996-04-04T12:00:00Z,28.9818,-94.9186,2.0,180.7299409,11.77095578,-99999.0,'11111222,11111222,99999999' 
TABS,ioos:station:wmo:42043:1,1996-04-04T12:30:00Z,28.9818,-94.9186,2.0,183.1562786,10.89653156,-99999.0,'11111222,11111222,99999999' 
TABS,ioos:station:wmo:42043:1,1996-04-04T13:00:00Z,28.9818,-94.9186,2.0,193.7835981,9.359540587,-99999.0,'11133222,11111222,99999999' 
TABS,ioos:station:wmo:42043:1,1996-04-04T13:30:00Z,28.9818,-94.9186,2.0,197.3338615,12.01571055,-99999.0,'11111222,11111222,99999999' 
TABS,ioos:station:wmo:42043:1,1996-04-04T14:00:00Z,28.9818,-94.9186,2.0,204.5866035,13.60340031,-99999.0,'11111222,11111222,99999999' 
TABS,ioos:station:wmo:42043:1,1996-04-04T14:30:00Z,28.9818,-94.9186,2.0,243.43459,13.32696515,-99999.0,'11111222,11111222,99999999' 
TABS,ioos:station:wmo:42043:1,1996-04-04T15:00:00Z,28.9818,-94.9186,2.0,207.6828602,24.06467328,-99999.0,'11111222,11111222,99999999' 
TABS,ioos:station:wmo:42043:1,1996-04-04T15:30:00Z,28.9818,-94.9186,2.0,205.1615636,21.7321536,-99999.0,'11111222,11111222,99999999' 
TABS,ioos:station:wmo:42043:1,1996-04-04T16:00:00Z,28.9818,-94.9186,2.0,205.5488588,18.66515738,-99999.0,'11111222,11111222,99999999' 